M I D A S
Marine Information and Data Acquisition System
Tripno 1942 of the Zeeleeuw from 2010-08-20 08:00:00 to 2010-08-20 17:00:00
Back to CruiseResearch ActivitiesStationsMapUnderway DataData graphs

EquipmentUnitsComments
TimeDGPSUTC
LatitudeDGPSDM.mWGS84
LongitudeDGPSDM.mWGS84
SpeedMeteo Stationm/sRelative wind speed
DirectionMeteo StationdegRelative wind direction
TemperatureMeteo Stationdeg CelciusAir temperature
PressureMeteo StationPaAtmospheric pressure
HumidityMeteo Station%Relative humidity
Missing or incorrect values are displayed as -999
Metereological data collected by the RV Zeeleeuw from 2010-08-20 08:00:00 to 2010-08-20 17:00:00
                                                                                    Next 1000 lines
Time Latitude Longitude Speed Direction Temperature Pressure Humidity
2010-08-20 08:00:20 51°22.794 2°43.468 -999 -999 -999 -999 -999
2010-08-20 08:00:30 51°22.785 2°43.481 -999 -999 -999 -999 -999
2010-08-20 08:00:40 51°22.78 2°43.492 -999 -999 -999 -999 -999
2010-08-20 08:00:50 51°22.777 2°43.503 -999 -999 -999 -999 -999
2010-08-20 08:01:00 51°22.776 2°43.513 -999 -999 -999 -999 -999
2010-08-20 08:01:10 51°22.776 2°43.524 -999 -999 -999 -999 -999
2010-08-20 08:01:20 51°22.776 2°43.534 -999 -999 -999 -999 -999
2010-08-20 08:01:30 51°22.777 2°43.545 -999 -999 -999 -999 -999
2010-08-20 08:01:40 51°22.778 2°43.554 -999 -999 -999 -999 -999
2010-08-20 08:01:50 51°22.779 2°43.565 -999 -999 -999 -999 -999
2010-08-20 08:02:00 51°22.781 2°43.574 -999 -999 -999 -999 -999
2010-08-20 08:02:10 51°22.783 2°43.584 -999 -999 -999 -999 -999
2010-08-20 08:02:20 51°22.784 2°43.592 -999 -999 -999 -999 -999
2010-08-20 08:02:30 51°22.786 2°43.602 -999 -999 -999 -999 -999
2010-08-20 08:02:40 51°22.787 2°43.61 -999 -999 -999 -999 -999
2010-08-20 08:02:50 51°22.789 2°43.619 -999 -999 -999 -999 -999
2010-08-20 08:03:00 51°22.791 2°43.627 -999 -999 -999 -999 -999
2010-08-20 08:03:10 51°22.792 2°43.635 -999 -999 -999 -999 -999
2010-08-20 08:03:20 51°22.794 2°43.642 -999 -999 -999 -999 -999
2010-08-20 08:03:30 51°22.796 2°43.65 -999 -999 -999 -999 -999
2010-08-20 08:03:40 51°22.798 2°43.658 -999 -999 -999 -999 -999
2010-08-20 08:03:50 51°22.8 2°43.665 -999 -999 -999 -999 -999
2010-08-20 08:04:00 51°22.801 2°43.673 -999 -999 -999 -999 -999
2010-08-20 08:04:10 51°22.803 2°43.68 -999 -999 -999 -999 -999
2010-08-20 08:04:20 51°22.805 2°43.686 -999 -999 -999 -999 -999
2010-08-20 08:04:30 51°22.808 2°43.694 -999 -999 -999 -999 -999
2010-08-20 08:04:40 51°22.809 2°43.7 -999 -999 -999 -999 -999
2010-08-20 08:04:50 51°22.812 2°43.707 -999 -999 -999 -999 -999
2010-08-20 08:05:00 51°22.814 2°43.712 -999 -999 -999 -999 -999
2010-08-20 08:05:10 51°22.815 2°43.719 -999 -999 -999 -999 -999
2010-08-20 08:05:20 51°22.817 2°43.725 -999 -999 -999 -999 -999
2010-08-20 08:05:30 51°22.82 2°43.731 -999 -999 -999 -999 -999
2010-08-20 08:05:40 51°22.821 2°43.737 -999 -999 -999 -999 -999
2010-08-20 08:05:50 51°22.824 2°43.743 -999 -999 -999 -999 -999
2010-08-20 08:06:00 51°22.826 2°43.748 -999 -999 -999 -999 -999
2010-08-20 08:06:10 51°22.828 2°43.753 -999 -999 -999 -999 -999
2010-08-20 08:06:20 51°22.83 2°43.759 -999 -999 -999 -999 -999
2010-08-20 08:06:30 51°22.833 2°43.766 -999 -999 -999 -999 -999
2010-08-20 08:06:40 51°22.835 2°43.771 -999 -999 -999 -999 -999
2010-08-20 08:06:50 51°22.837 2°43.776 -999 -999 -999 -999 -999
2010-08-20 08:07:00 51°22.84 2°43.781 -999 -999 -999 -999 -999
2010-08-20 08:07:10 51°22.842 2°43.786 -999 -999 -999 -999 -999
2010-08-20 08:07:20 51°22.844 2°43.791 -999 -999 -999 -999 -999
2010-08-20 08:07:30 51°22.847 2°43.797 -999 -999 -999 -999 -999
2010-08-20 08:07:40 51°22.849 2°43.802 -999 -999 -999 -999 -999
2010-08-20 08:07:50 51°22.851 2°43.811 -999 -999 -999 -999 -999
2010-08-20 08:08:00 51°22.852 2°43.819 -999 -999 -999 -999 -999
2010-08-20 08:08:10 51°22.854 2°43.833 -999 -999 -999 -999 -999
2010-08-20 08:08:20 51°22.857 2°43.847 -999 -999 -999 -999 -999
2010-08-20 08:08:30 51°22.863 2°43.866 -999 -999 -999 -999 -999
2010-08-20 08:08:40 51°22.87 2°43.881 -999 -999 -999 -999 -999
2010-08-20 08:08:50 51°22.883 2°43.896 -999 -999 -999 -999 -999
2010-08-20 08:09:00 51°22.895 2°43.905 -999 -999 -999 -999 -999
2010-08-20 08:09:10 51°22.911 2°43.91 -999 -999 -999 -999 -999
2010-08-20 08:09:20 51°22.924 2°43.906 -999 -999 -999 -999 -999
2010-08-20 08:09:30 51°22.939 2°43.896 -999 -999 -999 -999 -999
2010-08-20 08:09:40 51°22.948 2°43.883 -999 -999 -999 -999 -999
2010-08-20 08:09:50 51°22.956 2°43.863 -999 -999 -999 -999 -999
2010-08-20 08:10:00 51°22.96 2°43.843 -999 -999 -999 -999 -999
2010-08-20 08:10:10 51°22.962 2°43.818 -999 -999 -999 -999 -999
2010-08-20 08:10:20 51°22.96 2°43.793 -999 -999 -999 -999 -999
2010-08-20 08:10:30 51°22.956 2°43.767 -999 -999 -999 -999 -999
2010-08-20 08:10:40 51°22.949 2°43.743 -999 -999 -999 -999 -999
2010-08-20 08:10:50 51°22.939 2°43.715 -999 -999 -999 -999 -999
2010-08-20 08:11:00 51°22.93 2°43.693 -999 -999 -999 -999 -999
2010-08-20 08:11:10 51°22.917 2°43.665 -999 -999 -999 -999 -999
2010-08-20 08:11:20 51°22.908 2°43.642 -999 -999 -999 -999 -999
2010-08-20 08:11:30 51°22.898 2°43.619 -999 -999 -999 -999 -999
2010-08-20 08:11:40 51°22.889 2°43.597 -999 -999 -999 -999 -999
2010-08-20 08:11:50 51°22.879 2°43.578 -999 -999 -999 -999 -999
2010-08-20 08:12:00 51°22.871 2°43.564 -999 -999 -999 -999 -999
2010-08-20 08:12:10 51°22.863 2°43.551 -999 -999 -999 -999 -999
2010-08-20 08:12:20 51°22.855 2°43.541 -999 -999 -999 -999 -999
2010-08-20 08:12:30 51°22.847 2°43.533 -999 -999 -999 -999 -999
2010-08-20 08:12:40 51°22.841 2°43.527 -999 -999 -999 -999 -999
2010-08-20 08:12:50 51°22.834 2°43.522 -999 -999 -999 -999 -999
2010-08-20 08:13:00 51°22.828 2°43.518 -999 -999 -999 -999 -999
2010-08-20 08:13:10 51°22.823 2°43.515 -999 -999 -999 -999 -999
2010-08-20 08:13:20 51°22.818 2°43.513 -999 -999 -999 -999 -999
2010-08-20 08:13:30 51°22.813 2°43.511 -999 -999 -999 -999 -999
2010-08-20 08:13:40 51°22.809 2°43.51 -999 -999 -999 -999 -999
2010-08-20 08:13:50 51°22.804 2°43.509 -999 -999 -999 -999 -999
2010-08-20 08:14:00 51°22.801 2°43.509 -999 -999 -999 -999 -999
2010-08-20 08:14:10 51°22.797 2°43.509 -999 -999 -999 -999 -999
2010-08-20 08:14:20 51°22.794 2°43.509 -999 -999 -999 -999 -999
2010-08-20 08:14:30 51°22.791 2°43.51 -999 -999 -999 -999 -999
2010-08-20 08:14:40 51°22.789 2°43.511 -999 -999 -999 -999 -999
2010-08-20 08:14:50 51°22.786 2°43.513 -999 -999 -999 -999 -999
2010-08-20 08:15:00 51°22.785 2°43.514 -999 -999 -999 -999 -999
2010-08-20 08:15:10 51°22.783 2°43.515 -999 -999 -999 -999 -999
2010-08-20 08:15:20 51°22.782 2°43.517 -999 -999 -999 -999 -999
2010-08-20 08:15:30 51°22.781 2°43.519 -999 -999 -999 -999 -999
2010-08-20 08:15:40 51°22.78 2°43.521 -999 -999 -999 -999 -999
2010-08-20 08:15:50 51°22.779 2°43.524 -999 -999 -999 -999 -999
2010-08-20 08:16:00 51°22.78 2°43.526 -999 -999 -999 -999 -999
2010-08-20 08:16:10 51°22.782 2°43.53 -999 -999 -999 -999 -999
2010-08-20 08:16:20 51°22.785 2°43.534 -999 -999 -999 -999 -999
2010-08-20 08:16:30 51°22.791 2°43.542 -999 -999 -999 -999 -999
2010-08-20 08:16:40 51°22.794 2°43.548 -999 -999 -999 -999 -999
2010-08-20 08:16:50 51°22.8 2°43.555 -999 -999 -999 -999 -999
2010-08-20 08:17:00 51°22.803 2°43.559 -999 -999 -999 -999 -999
2010-08-20 08:17:10 51°22.803 2°43.56 -999 -999 -999 -999 -999
2010-08-20 08:17:20 51°22.803 2°43.557 -999 -999 -999 -999 -999
2010-08-20 08:17:30 51°22.801 2°43.551 -999 -999 -999 -999 -999
2010-08-20 08:17:40 51°22.801 2°43.545 -999 -999 -999 -999 -999
2010-08-20 08:17:50 51°22.802 2°43.54 -999 -999 -999 -999 -999
2010-08-20 08:18:00 51°22.803 2°43.535 -999 -999 -999 -999 -999
2010-08-20 08:18:10 51°22.805 2°43.53 -999 -999 -999 -999 -999
2010-08-20 08:18:20 51°22.807 2°43.528 -999 -999 -999 -999 -999
2010-08-20 08:18:30 51°22.808 2°43.524 -999 -999 -999 -999 -999
2010-08-20 08:18:40 51°22.81 2°43.522 -999 -999 -999 -999 -999
2010-08-20 08:18:50 51°22.812 2°43.519 -999 -999 -999 -999 -999
2010-08-20 08:19:00 51°22.814 2°43.518 -999 -999 -999 -999 -999
2010-08-20 08:19:10 51°22.816 2°43.515 -999 -999 -999 -999 -999
2010-08-20 08:19:20 51°22.818 2°43.515 -999 -999 -999 -999 -999
2010-08-20 08:19:30 51°22.82 2°43.513 -999 -999 -999 -999 -999
2010-08-20 08:19:40 51°22.822 2°43.512 -999 -999 -999 -999 -999
2010-08-20 08:19:50 51°22.823 2°43.512 -999 -999 -999 -999 -999
2010-08-20 08:20:00 51°22.825 2°43.512 -999 -999 -999 -999 -999
2010-08-20 08:20:10 51°22.827 2°43.512 -999 -999 -999 -999 -999
2010-08-20 08:20:20 51°22.828 2°43.512 -999 -999 -999 -999 -999
2010-08-20 08:20:30 51°22.83 2°43.512 -999 -999 -999 -999 -999
2010-08-20 08:20:40 51°22.832 2°43.512 -999 -999 -999 -999 -999
2010-08-20 08:20:50 51°22.834 2°43.513 -999 -999 -999 -999 -999
2010-08-20 08:21:00 51°22.836 2°43.514 -999 -999 -999 -999 -999
2010-08-20 08:21:10 51°22.838 2°43.515 -999 -999 -999 -999 -999
2010-08-20 08:21:20 51°22.839 2°43.516 -999 -999 -999 -999 -999
2010-08-20 08:21:30 51°22.842 2°43.517 -999 -999 -999 -999 -999
2010-08-20 08:21:40 51°22.843 2°43.519 -999 -999 -999 -999 -999
2010-08-20 08:21:50 51°22.845 2°43.52 -999 -999 -999 -999 -999
2010-08-20 08:22:00 51°22.847 2°43.522 -999 -999 -999 -999 -999
2010-08-20 08:22:10 51°22.85 2°43.524 -999 -999 -999 -999 -999
2010-08-20 08:22:20 51°22.851 2°43.526 -999 -999 -999 -999 -999
2010-08-20 08:22:30 51°22.853 2°43.527 -999 -999 -999 -999 -999
2010-08-20 08:22:40 51°22.855 2°43.53 -999 -999 -999 -999 -999
2010-08-20 08:22:50 51°22.857 2°43.532 -999 -999 -999 -999 -999
2010-08-20 08:23:00 51°22.859 2°43.534 -999 -999 -999 -999 -999
2010-08-20 08:23:10 51°22.861 2°43.536 -999 -999 -999 -999 -999
2010-08-20 08:23:20 51°22.863 2°43.538 -999 -999 -999 -999 -999
2010-08-20 08:23:30 51°22.866 2°43.541 -999 -999 -999 -999 -999
2010-08-20 08:23:40 51°22.867 2°43.543 -999 -999 -999 -999 -999
2010-08-20 08:23:50 51°22.87 2°43.545 -999 -999 -999 -999 -999
2010-08-20 08:24:00 51°22.871 2°43.548 -999 -999 -999 -999 -999
2010-08-20 08:24:10 51°22.874 2°43.55 -999 -999 -999 -999 -999
2010-08-20 08:24:20 51°22.876 2°43.553 -999 -999 -999 -999 -999
2010-08-20 08:24:30 51°22.878 2°43.555 -999 -999 -999 -999 -999
2010-08-20 08:24:40 51°22.88 2°43.557 -999 -999 -999 -999 -999
2010-08-20 08:24:50 51°22.882 2°43.56 -999 -999 -999 -999 -999
2010-08-20 08:25:00 51°22.884 2°43.562 -999 -999 -999 -999 -999
2010-08-20 08:25:10 51°22.886 2°43.564 -999 -999 -999 -999 -999
2010-08-20 08:25:20 51°22.888 2°43.567 -999 -999 -999 -999 -999
2010-08-20 08:25:30 51°22.89 2°43.569 -999 -999 -999 -999 -999
2010-08-20 08:25:40 51°22.892 2°43.572 -999 -999 -999 -999 -999
2010-08-20 08:25:50 51°22.894 2°43.574 -999 -999 -999 -999 -999
2010-08-20 08:26:00 51°22.896 2°43.577 -999 -999 -999 -999 -999
2010-08-20 08:26:10 51°22.898 2°43.579 -999 -999 -999 -999 -999
2010-08-20 08:26:20 51°22.9 2°43.581 -999 -999 -999 -999 -999
2010-08-20 08:26:30 51°22.902 2°43.584 -999 -999 -999 -999 -999
2010-08-20 08:26:40 51°22.905 2°43.586 -999 -999 -999 -999 -999
2010-08-20 08:26:50 51°22.907 2°43.589 -999 -999 -999 -999 -999
2010-08-20 08:27:00 51°22.909 2°43.592 -999 -999 -999 -999 -999
2010-08-20 08:27:10 51°22.911 2°43.595 -999 -999 -999 -999 -999
2010-08-20 08:27:20 51°22.913 2°43.597 -999 -999 -999 -999 -999
2010-08-20 08:27:30 51°22.915 2°43.599 -999 -999 -999 -999 -999
2010-08-20 08:27:40 51°22.917 2°43.602 -999 -999 -999 -999 -999
2010-08-20 08:27:50 51°22.919 2°43.605 -999 -999 -999 -999 -999
2010-08-20 08:28:00 51°22.922 2°43.607 -999 -999 -999 -999 -999
2010-08-20 08:28:10 51°22.924 2°43.61 -999 -999 -999 -999 -999
2010-08-20 08:28:20 51°22.926 2°43.612 -999 -999 -999 -999 -999
2010-08-20 08:28:30 51°22.928 2°43.615 -999 -999 -999 -999 -999
2010-08-20 08:28:40 51°22.93 2°43.617 -999 -999 -999 -999 -999
2010-08-20 08:28:50 51°22.933 2°43.62 -999 -999 -999 -999 -999
2010-08-20 08:29:00 51°22.935 2°43.623 -999 -999 -999 -999 -999
2010-08-20 08:29:10 51°22.937 2°43.626 -999 -999 -999 -999 -999
2010-08-20 08:29:20 51°22.939 2°43.629 -999 -999 -999 -999 -999
2010-08-20 08:29:30 51°22.941 2°43.632 -999 -999 -999 -999 -999
2010-08-20 08:29:40 51°22.944 2°43.634 -999 -999 -999 -999 -999
2010-08-20 08:29:50 51°22.946 2°43.638 -999 -999 -999 -999 -999
2010-08-20 08:30:00 51°22.948 2°43.641 -999 -999 -999 -999 -999
2010-08-20 08:30:10 51°22.951 2°43.644 -999 -999 -999 -999 -999
2010-08-20 08:30:20 51°22.953 2°43.647 -999 -999 -999 -999 -999
2010-08-20 08:30:30 51°22.956 2°43.65 -999 -999 -999 -999 -999
2010-08-20 08:30:40 51°22.958 2°43.653 -999 -999 -999 -999 -999
2010-08-20 08:30:50 51°22.96 2°43.656 -999 -999 -999 -999 -999
2010-08-20 08:31:00 51°22.963 2°43.66 -999 -999 -999 -999 -999
2010-08-20 08:31:10 51°22.966 2°43.664 -999 -999 -999 -999 -999
2010-08-20 08:31:20 51°22.968 2°43.667 -999 -999 -999 -999 -999
2010-08-20 08:31:30 51°22.971 2°43.671 -999 -999 -999 -999 -999
2010-08-20 08:31:40 51°22.973 2°43.674 -999 -999 -999 -999 -999
2010-08-20 08:31:50 51°22.976 2°43.678 -999 -999 -999 -999 -999
2010-08-20 08:32:00 51°22.978 2°43.681 -999 -999 -999 -999 -999
2010-08-20 08:32:10 51°22.981 2°43.684 -999 -999 -999 -999 -999
2010-08-20 08:32:20 51°22.983 2°43.685 -999 -999 -999 -999 -999
2010-08-20 08:32:30 51°22.985 2°43.685 -999 -999 -999 -999 -999
2010-08-20 08:32:40 51°22.986 2°43.682 -999 -999 -999 -999 -999
2010-08-20 08:32:50 51°22.986 2°43.68 -999 -999 -999 -999 -999
2010-08-20 08:33:00 51°22.986 2°43.676 -999 -999 -999 -999 -999
2010-08-20 08:33:10 51°22.984 2°43.671 -999 -999 -999 -999 -999
2010-08-20 08:33:20 51°22.981 2°43.665 -999 -999 -999 -999 -999
2010-08-20 08:33:30 51°22.976 2°43.656 -999 -999 -999 -999 -999
2010-08-20 08:33:40 51°22.971 2°43.649 -999 -999 -999 -999 -999
2010-08-20 08:33:50 51°22.963 2°43.639 -999 -999 -999 -999 -999
2010-08-20 08:34:00 51°22.956 2°43.63 -999 -999 -999 -999 -999
2010-08-20 08:34:10 51°22.947 2°43.619 -999 -999 -999 -999 -999
2010-08-20 08:34:20 51°22.939 2°43.61 -999 -999 -999 -999 -999
2010-08-20 08:34:30 51°22.929 2°43.599 -999 -999 -999 -999 -999
2010-08-20 08:34:40 51°22.92 2°43.59 -999 -999 -999 -999 -999
2010-08-20 08:34:50 51°22.908 2°43.579 -999 -999 -999 -999 -999
2010-08-20 08:35:00 51°22.898 2°43.571 -999 -999 -999 -999 -999
2010-08-20 08:35:10 51°22.887 2°43.562 -999 -999 -999 -999 -999
2010-08-20 08:35:20 51°22.878 2°43.556 -999 -999 -999 -999 -999
2010-08-20 08:35:30 51°22.87 2°43.551 -999 -999 -999 -999 -999
2010-08-20 08:35:40 51°22.862 2°43.549 -999 -999 -999 -999 -999
2010-08-20 08:35:50 51°22.854 2°43.547 -999 -999 -999 -999 -999
2010-08-20 08:36:00 51°22.848 2°43.547 -999 -999 -999 -999 -999
2010-08-20 08:36:10 51°22.842 2°43.548 -999 -999 -999 -999 -999
2010-08-20 08:36:20 51°22.836 2°43.549 -999 -999 -999 -999 -999
2010-08-20 08:36:30 51°22.83 2°43.551 -999 -999 -999 -999 -999
2010-08-20 08:36:40 51°22.826 2°43.553 -999 -999 -999 -999 -999
2010-08-20 08:36:50 51°22.822 2°43.556 -999 -999 -999 -999 -999
2010-08-20 08:37:00 51°22.819 2°43.558 -999 -999 -999 -999 -999
2010-08-20 08:37:10 51°22.815 2°43.562 -999 -999 -999 -999 -999
2010-08-20 08:37:20 51°22.812 2°43.565 -999 -999 -999 -999 -999
2010-08-20 08:37:30 51°22.809 2°43.568 -999 -999 -999 -999 -999
2010-08-20 08:37:40 51°22.807 2°43.572 -999 -999 -999 -999 -999
2010-08-20 08:37:50 51°22.804 2°43.576 -999 -999 -999 -999 -999
2010-08-20 08:38:00 51°22.802 2°43.58 -999 -999 -999 -999 -999
2010-08-20 08:38:10 51°22.8 2°43.584 -999 -999 -999 -999 -999
2010-08-20 08:38:20 51°22.799 2°43.589 -999 -999 -999 -999 -999
2010-08-20 08:38:30 51°22.798 2°43.593 -999 -999 -999 -999 -999
2010-08-20 08:38:40 51°22.797 2°43.597 -999 -999 -999 -999 -999
2010-08-20 08:38:50 51°22.796 2°43.602 -999 -999 -999 -999 -999
2010-08-20 08:39:00 51°22.795 2°43.607 -999 -999 -999 -999 -999
2010-08-20 08:39:10 51°22.795 2°43.612 -999 -999 -999 -999 -999
2010-08-20 08:39:20 51°22.794 2°43.617 -999 -999 -999 -999 -999
2010-08-20 08:39:30 51°22.794 2°43.622 -999 -999 -999 -999 -999
2010-08-20 08:39:40 51°22.794 2°43.627 -999 -999 -999 -999 -999
2010-08-20 08:39:50 51°22.794 2°43.633 -999 -999 -999 -999 -999
2010-08-20 08:40:00 51°22.794 2°43.638 -999 -999 -999 -999 -999
2010-08-20 08:40:10 51°22.795 2°43.644 -999 -999 -999 -999 -999
2010-08-20 08:40:20 51°22.795 2°43.649 -999 -999 -999 -999 -999
2010-08-20 08:40:30 51°22.796 2°43.655 -999 -999 -999 -999 -999
2010-08-20 08:40:40 51°22.796 2°43.66 -999 -999 -999 -999 -999
2010-08-20 08:40:50 51°22.797 2°43.666 -999 -999 -999 -999 -999
2010-08-20 08:41:00 51°22.798 2°43.671 -999 -999 -999 -999 -999
2010-08-20 08:41:10 51°22.799 2°43.677 -999 -999 -999 -999 -999
2010-08-20 08:41:20 51°22.8 2°43.682 -999 -999 -999 -999 -999
2010-08-20 08:41:30 51°22.801 2°43.688 -999 -999 -999 -999 -999
2010-08-20 08:41:40 51°22.803 2°43.693 -999 -999 -999 -999 -999
2010-08-20 08:41:50 51°22.804 2°43.699 -999 -999 -999 -999 -999
2010-08-20 08:42:00 51°22.805 2°43.704 -999 -999 -999 -999 -999
2010-08-20 08:42:10 51°22.807 2°43.71 -999 -999 -999 -999 -999
2010-08-20 08:42:20 51°22.808 2°43.715 -999 -999 -999 -999 -999
2010-08-20 08:42:30 51°22.81 2°43.721 -999 -999 -999 -999 -999
2010-08-20 08:42:40 51°22.812 2°43.726 -999 -999 -999 -999 -999
2010-08-20 08:42:50 51°22.814 2°43.732 -999 -999 -999 -999 -999
2010-08-20 08:43:00 51°22.815 2°43.738 -999 -999 -999 -999 -999
2010-08-20 08:43:10 51°22.817 2°43.744 -999 -999 -999 -999 -999
2010-08-20 08:43:20 51°22.819 2°43.749 -999 -999 -999 -999 -999
2010-08-20 08:43:30 51°22.822 2°43.755 -999 -999 -999 -999 -999
2010-08-20 08:43:40 51°22.824 2°43.76 -999 -999 -999 -999 -999
2010-08-20 08:43:50 51°22.826 2°43.766 -999 -999 -999 -999 -999
2010-08-20 08:44:00 51°22.829 2°43.772 -999 -999 -999 -999 -999
2010-08-20 08:44:10 51°22.832 2°43.777 -999 -999 -999 -999 -999
2010-08-20 08:44:20 51°22.834 2°43.783 -999 -999 -999 -999 -999
2010-08-20 08:44:30 51°22.836 2°43.79 -999 -999 -999 -999 -999
2010-08-20 08:44:40 51°22.836 2°43.797 -999 -999 -999 -999 -999
2010-08-20 08:44:50 51°22.835 2°43.806 -999 -999 -999 -999 -999
2010-08-20 08:45:00 51°22.831 2°43.812 -999 -999 -999 -999 -999
2010-08-20 08:45:10 51°22.826 2°43.82 -999 -999 -999 -999 -999
2010-08-20 08:45:20 51°22.82 2°43.822 -999 -999 -999 -999 -999
2010-08-20 08:45:30 51°22.812 2°43.822 -999 -999 -999 -999 -999
2010-08-20 08:45:40 51°22.807 2°43.818 -999 -999 -999 -999 -999
2010-08-20 08:45:50 51°22.802 2°43.81 -999 -999 -999 -999 -999
2010-08-20 08:46:00 51°22.798 2°43.8 -999 -999 -999 -999 -999
2010-08-20 08:46:10 51°22.795 2°43.787 -999 -999 -999 -999 -999
2010-08-20 08:46:20 51°22.792 2°43.772 -999 -999 -999 -999 -999
2010-08-20 08:46:30 51°22.788 2°43.754 -999 -999 -999 -999 -999
2010-08-20 08:46:40 51°22.785 2°43.738 -999 -999 -999 -999 -999
2010-08-20 08:46:50 51°22.779 2°43.718 -999 -999 -999 -999 -999
2010-08-20 08:47:00 51°22.775 2°43.7 -999 -999 -999 -999 -999
2010-08-20 08:47:10 51°22.77 2°43.68 -999 -999 -999 -999 -999
2010-08-20 08:47:20 51°22.765 2°43.659 -999 -999 -999 -999 -999
2010-08-20 08:47:30 51°22.761 2°43.641 -999 -999 -999 -999 -999
2010-08-20 08:47:40 51°22.757 2°43.628 -999 -999 -999 -999 -999
2010-08-20 08:47:50 51°22.752 2°43.615 -999 -999 -999 -999 -999
2010-08-20 08:48:00 51°22.748 2°43.606 -999 -999 -999 -999 -999
2010-08-20 08:48:10 51°22.744 2°43.597 -999 -999 -999 -999 -999
2010-08-20 08:48:20 51°22.742 2°43.593 -999 -999 -999 -999 -999
2010-08-20 08:48:30 51°22.74 2°43.59 -999 -999 -999 -999 -999
2010-08-20 08:48:40 51°22.738 2°43.586 -999 -999 -999 -999 -999
2010-08-20 08:48:50 51°22.736 2°43.584 -999 -999 -999 -999 -999
2010-08-20 08:49:00 51°22.735 2°43.582 -999 -999 -999 -999 -999
2010-08-20 08:49:10 51°22.734 2°43.58 -999 -999 -999 -999 -999
2010-08-20 08:49:20 51°22.733 2°43.579 -999 -999 -999 -999 -999
2010-08-20 08:49:30 51°22.732 2°43.579 -999 -999 -999 -999 -999
2010-08-20 08:49:40 51°22.731 2°43.578 -999 -999 -999 -999 -999
2010-08-20 08:49:50 51°22.731 2°43.578 -999 -999 -999 -999 -999
2010-08-20 08:50:00 51°22.73 2°43.578 -999 -999 -999 -999 -999
2010-08-20 08:50:10 51°22.73 2°43.578 -999 -999 -999 -999 -999
2010-08-20 08:50:20 51°22.73 2°43.578 -999 -999 -999 -999 -999
2010-08-20 08:50:30 51°22.73 2°43.579 -999 -999 -999 -999 -999
2010-08-20 08:50:40 51°22.731 2°43.58 -999 -999 -999 -999 -999
2010-08-20 08:50:50 51°22.731 2°43.581 -999 -999 -999 -999 -999
2010-08-20 08:51:00 51°22.732 2°43.582 -999 -999 -999 -999 -999
2010-08-20 08:51:10 51°22.732 2°43.585 -999 -999 -999 -999 -999
2010-08-20 08:51:20 51°22.733 2°43.586 -999 -999 -999 -999 -999
2010-08-20 08:51:30 51°22.734 2°43.588 -999 -999 -999 -999 -999
2010-08-20 08:51:40 51°22.735 2°43.589 -999 -999 -999 -999 -999
2010-08-20 08:51:50 51°22.737 2°43.592 -999 -999 -999 -999 -999
2010-08-20 08:52:00 51°22.738 2°43.593 -999 -999 -999 -999 -999
2010-08-20 08:52:10 51°22.739 2°43.596 -999 -999 -999 -999 -999
2010-08-20 08:52:20 51°22.74 2°43.598 -999 -999 -999 -999 -999
2010-08-20 08:52:30 51°22.742 2°43.601 -999 -999 -999 -999 -999
2010-08-20 08:52:40 51°22.743 2°43.603 -999 -999 -999 -999 -999
2010-08-20 08:52:50 51°22.745 2°43.605 -999 -999 -999 -999 -999
2010-08-20 08:53:00 51°22.746 2°43.608 -999 -999 -999 -999 -999
2010-08-20 08:53:10 51°22.748 2°43.611 -999 -999 -999 -999 -999
2010-08-20 08:53:20 51°22.75 2°43.614 -999 -999 -999 -999 -999
2010-08-20 08:53:30 51°22.752 2°43.617 -999 -999 -999 -999 -999
2010-08-20 08:53:40 51°22.753 2°43.619 -999 -999 -999 -999 -999
2010-08-20 08:53:50 51°22.755 2°43.623 -999 -999 -999 -999 -999
2010-08-20 08:54:00 51°22.757 2°43.625 -999 -999 -999 -999 -999
2010-08-20 08:54:10 51°22.759 2°43.628 -999 -999 -999 -999 -999
2010-08-20 08:54:20 51°22.76 2°43.631 -999 -999 -999 -999 -999
2010-08-20 08:54:30 51°22.762 2°43.634 -999 -999 -999 -999 -999
2010-08-20 08:54:40 51°22.764 2°43.637 -999 -999 -999 -999 -999
2010-08-20 08:54:50 51°22.766 2°43.64 -999 -999 -999 -999 -999
2010-08-20 08:55:00 51°22.768 2°43.643 -999 -999 -999 -999 -999
2010-08-20 08:55:10 51°22.77 2°43.645 -999 -999 -999 -999 -999
2010-08-20 08:55:20 51°22.772 2°43.648 -999 -999 -999 -999 -999
2010-08-20 08:55:30 51°22.775 2°43.652 -999 -999 -999 -999 -999
2010-08-20 08:55:40 51°22.777 2°43.655 -999 -999 -999 -999 -999
2010-08-20 08:55:50 51°22.779 2°43.658 -999 -999 -999 -999 -999
2010-08-20 08:56:00 51°22.781 2°43.661 -999 -999 -999 -999 -999
2010-08-20 08:56:10 51°22.784 2°43.664 -999 -999 -999 -999 -999
2010-08-20 08:56:20 51°22.786 2°43.667 -999 -999 -999 -999 -999
2010-08-20 08:56:30 51°22.788 2°43.67 -999 -999 -999 -999 -999
2010-08-20 08:56:40 51°22.791 2°43.674 -999 -999 -999 -999 -999
2010-08-20 08:56:50 51°22.793 2°43.677 -999 -999 -999 -999 -999
2010-08-20 08:57:00 51°22.796 2°43.68 -999 -999 -999 -999 -999
2010-08-20 08:57:10 51°22.798 2°43.684 -999 -999 -999 -999 -999
2010-08-20 08:57:20 51°22.8 2°43.687 -999 -999 -999 -999 -999
2010-08-20 08:57:30 51°22.803 2°43.69 -999 -999 -999 -999 -999
2010-08-20 08:57:40 51°22.806 2°43.693 -999 -999 -999 -999 -999
2010-08-20 08:57:50 51°22.808 2°43.698 -999 -999 -999 -999 -999
2010-08-20 08:58:00 51°22.811 2°43.701 -999 -999 -999 -999 -999
2010-08-20 08:58:10 51°22.813 2°43.704 -999 -999 -999 -999 -999
2010-08-20 08:58:20 51°22.815 2°43.704 -999 -999 -999 -999 -999
2010-08-20 08:58:30 51°22.816 2°43.702 -999 -999 -999 -999 -999
2010-08-20 08:58:40 51°22.818 2°43.698 -999 -999 -999 -999 -999
2010-08-20 08:58:50 51°22.82 2°43.691 -999 -999 -999 -999 -999
2010-08-20 08:59:00 51°22.824 2°43.682 -999 -999 -999 -999 -999
2010-08-20 08:59:10 51°22.832 2°43.671 -999 -999 -999 -999 -999
2010-08-20 08:59:20 51°22.844 2°43.662 -999 -999 -999 -999 -999
2010-08-20 08:59:30 51°22.856 2°43.659 -999 -999 -999 -999 -999
2010-08-20 08:59:40 51°22.869 2°43.659 -999 -999 -999 -999 -999
2010-08-20 08:59:50 51°22.881 2°43.663 -999 -999 -999 -999 -999
2010-08-20 09:00:00 51°22.893 2°43.669 -999 -999 -999 -999 -999
2010-08-20 09:00:10 51°22.906 2°43.679 -999 -999 -999 -999 -999
2010-08-20 09:00:20 51°22.915 2°43.69 -999 -999 -999 -999 -999
2010-08-20 09:00:30 51°22.925 2°43.702 -999 -999 -999 -999 -999
2010-08-20 09:00:40 51°22.933 2°43.716 -999 -999 -999 -999 -999
2010-08-20 09:00:50 51°22.941 2°43.728 -999 -999 -999 -999 -999
2010-08-20 09:01:00 51°22.947 2°43.739 -999 -999 -999 -999 -999
2010-08-20 09:01:10 51°22.952 2°43.749 -999 -999 -999 -999 -999
2010-08-20 09:01:20 51°22.957 2°43.757 -999 -999 -999 -999 -999
2010-08-20 09:01:30 51°22.964 2°43.768 -999 -999 -999 -999 -999
2010-08-20 09:01:40 51°22.969 2°43.777 -999 -999 -999 -999 -999
2010-08-20 09:01:50 51°22.977 2°43.789 -999 -999 -999 -999 -999
2010-08-20 09:02:00 51°22.986 2°43.802 -999 -999 -999 -999 -999
2010-08-20 09:02:10 51°23.003 2°43.818 -999 -999 -999 -999 -999
2010-08-20 09:02:20 51°23.022 2°43.829 -999 -999 -999 -999 -999
2010-08-20 09:02:30 51°23.048 2°43.835 -999 -999 -999 -999 -999
2010-08-20 09:02:40 51°23.073 2°43.834 -999 -999 -999 -999 -999
2010-08-20 09:02:50 51°23.101 2°43.832 -999 -999 -999 -999 -999
2010-08-20 09:03:00 51°23.132 2°43.835 -999 -999 -999 -999 -999
2010-08-20 09:03:10 51°23.167 2°43.847 -999 -999 -999 -999 -999
2010-08-20 09:03:20 51°23.196 2°43.858 -999 -999 -999 -999 -999
2010-08-20 09:03:30 51°23.232 2°43.869 -999 -999 -999 -999 -999
2010-08-20 09:03:40 51°23.262 2°43.877 -999 -999 -999 -999 -999
2010-08-20 09:03:50 51°23.3 2°43.884 -999 -999 -999 -999 -999
2010-08-20 09:04:00 51°23.33 2°43.89 -999 -999 -999 -999 -999
2010-08-20 09:04:10 51°23.364 2°43.9 -999 -999 -999 -999 -999
2010-08-20 09:04:20 51°23.397 2°43.915 -999 -999 -999 -999 -999
2010-08-20 09:04:30 51°23.433 2°43.938 -999 -999 -999 -999 -999
2010-08-20 09:04:40 51°23.461 2°43.96 -999 -999 -999 -999 -999
2010-08-20 09:04:50 51°23.496 2°43.985 -999 -999 -999 -999 -999
2010-08-20 09:05:00 51°23.525 2°44 -999 -999 -999 -999 -999
2010-08-20 09:05:10 51°23.558 2°44.015 -999 -999 -999 -999 -999
2010-08-20 09:05:20 51°23.584 2°44.026 -999 -999 -999 -999 -999
2010-08-20 09:05:30 51°23.608 2°44.049 -999 -999 -999 -999 -999
2010-08-20 09:05:40 51°23.628 2°44.078 -999 -999 -999 -999 -999
2010-08-20 09:05:50 51°23.643 2°44.114 -999 -999 -999 -999 -999
2010-08-20 09:06:00 51°23.652 2°44.145 -999 -999 -999 -999 -999
2010-08-20 09:06:10 51°23.662 2°44.18 -999 -999 -999 -999 -999
2010-08-20 09:06:20 51°23.673 2°44.213 -999 -999 -999 -999 -999
2010-08-20 09:06:30 51°23.686 2°44.247 -999 -999 -999 -999 -999
2010-08-20 09:06:40 51°23.698 2°44.275 -999 -999 -999 -999 -999
2010-08-20 09:06:50 51°23.714 2°44.307 -999 -999 -999 -999 -999
2010-08-20 09:07:00 51°23.727 2°44.334 -999 -999 -999 -999 -999
2010-08-20 09:07:10 51°23.743 2°44.361 -999 -999 -999 -999 -999
2010-08-20 09:07:20 51°23.76 2°44.387 -999 -999 -999 -999 -999
2010-08-20 09:07:30 51°23.779 2°44.414 -999 -999 -999 -999 -999
2010-08-20 09:07:40 51°23.795 2°44.434 -999 -999 -999 -999 -999
2010-08-20 09:07:50 51°23.816 2°44.458 -999 -999 -999 -999 -999
2010-08-20 09:08:00 51°23.833 2°44.476 -999 -999 -999 -999 -999
2010-08-20 09:08:10 51°23.855 2°44.496 -999 -999 -999 -999 -999
2010-08-20 09:08:20 51°23.872 2°44.511 -999 -999 -999 -999 -999
2010-08-20 09:08:30 51°23.895 2°44.529 -999 -999 -999 -999 -999
2010-08-20 09:08:40 51°23.913 2°44.542 -999 -999 -999 -999 -999
2010-08-20 09:08:50 51°23.934 2°44.555 -999 -999 -999 -999 -999
2010-08-20 09:09:00 51°23.953 2°44.559 -999 -999 -999 -999 -999
2010-08-20 09:09:10 51°23.972 2°44.557 -999 -999 -999 -999 -999
2010-08-20 09:09:20 51°23.985 2°44.551 -999 -999 -999 -999 -999
2010-08-20 09:09:30 51°23.998 2°44.538 -999 -999 -999 -999 -999
2010-08-20 09:09:40 51°24.006 2°44.525 -999 -999 -999 -999 -999
2010-08-20 09:09:50 51°24.011 2°44.508 -999 -999 -999 -999 -999
2010-08-20 09:10:00 51°24.014 2°44.492 -999 -999 -999 -999 -999
2010-08-20 09:10:10 51°24.013 2°44.476 -999 -999 -999 -999 -999
2010-08-20 09:10:20 51°24.009 2°44.464 -999 -999 -999 -999 -999
2010-08-20 09:10:30 51°24.001 2°44.452 -999 -999 -999 -999 -999
2010-08-20 09:10:40 51°23.99 2°44.44 -999 -999 -999 -999 -999
2010-08-20 09:10:50 51°23.972 2°44.425 -999 -999 -999 -999 -999
2010-08-20 09:11:00 51°23.949 2°44.407 -999 -999 -999 -999 -999
2010-08-20 09:11:10 51°23.921 2°44.384 -999 -999 -999 -999 -999
2010-08-20 09:11:20 51°23.896 2°44.364 -999 -999 -999 -999 -999
2010-08-20 09:11:30 51°23.865 2°44.339 -999 -999 -999 -999 -999
2010-08-20 09:11:40 51°23.839 2°44.319 -999 -999 -999 -999 -999
2010-08-20 09:11:50 51°23.807 2°44.293 -999 -999 -999 -999 -999
2010-08-20 09:12:00 51°23.781 2°44.272 -999 -999 -999 -999 -999
2010-08-20 09:12:10 51°23.749 2°44.246 -999 -999 -999 -999 -999
2010-08-20 09:12:20 51°23.722 2°44.225 -999 -999 -999 -999 -999
2010-08-20 09:12:30 51°23.691 2°44.198 -999 -999 -999 -999 -999
2010-08-20 09:12:40 51°23.664 2°44.177 -999 -999 -999 -999 -999
2010-08-20 09:12:50 51°23.632 2°44.152 -999 -999 -999 -999 -999
2010-08-20 09:13:00 51°23.605 2°44.13 -999 -999 -999 -999 -999
2010-08-20 09:13:10 51°23.573 2°44.104 -999 -999 -999 -999 -999
2010-08-20 09:13:20 51°23.547 2°44.082 -999 -999 -999 -999 -999
2010-08-20 09:13:30 51°23.515 2°44.054 -999 -999 -999 -999 -999
2010-08-20 09:13:40 51°23.489 2°44.033 -999 -999 -999 -999 -999
2010-08-20 09:13:50 51°23.456 2°44.007 -999 -999 -999 -999 -999
2010-08-20 09:14:00 51°23.43 2°43.986 -999 -999 -999 -999 -999
2010-08-20 09:14:10 51°23.398 2°43.96 -999 -999 -999 -999 -999
2010-08-20 09:14:20 51°23.371 2°43.939 -999 -999 -999 -999 -999
2010-08-20 09:14:30 51°23.339 2°43.913 -999 -999 -999 -999 -999
2010-08-20 09:14:40 51°23.316 2°43.893 -999 -999 -999 -999 -999
2010-08-20 09:14:50 51°23.29 2°43.873 -999 -999 -999 -999 -999
2010-08-20 09:15:00 51°23.272 2°43.86 -999 -999 -999 -999 -999
2010-08-20 09:15:10 51°23.253 2°43.85 -999 -999 -999 -999 -999
2010-08-20 09:15:20 51°23.236 2°43.845 -999 -999 -999 -999 -999
2010-08-20 09:15:30 51°23.218 2°43.844 -999 -999 -999 -999 -999
2010-08-20 09:15:40 51°23.203 2°43.845 -999 -999 -999 -999 -999
2010-08-20 09:15:50 51°23.187 2°43.847 -999 -999 -999 -999 -999
2010-08-20 09:16:00 51°23.174 2°43.849 -999 -999 -999 -999 -999
2010-08-20 09:16:10 51°23.159 2°43.853 -999 -999 -999 -999 -999
2010-08-20 09:16:20 51°23.146 2°43.856 -999 -999 -999 -999 -999
2010-08-20 09:16:30 51°23.132 2°43.859 -999 -999 -999 -999 -999
2010-08-20 09:16:40 51°23.12 2°43.862 -999 -999 -999 -999 -999
2010-08-20 09:16:50 51°23.107 2°43.864 -999 -999 -999 -999 -999
2010-08-20 09:17:00 51°23.095 2°43.866 -999 -999 -999 -999 -999
2010-08-20 09:17:10 51°23.083 2°43.866 -999 -999 -999 -999 -999
2010-08-20 09:17:20 51°23.071 2°43.865 -999 -999 -999 -999 -999
2010-08-20 09:17:30 51°23.06 2°43.863 -999 -999 -999 -999 -999
2010-08-20 09:17:40 51°23.05 2°43.858 -999 -999 -999 -999 -999
2010-08-20 09:17:50 51°23.039 2°43.852 -999 -999 -999 -999 -999
2010-08-20 09:18:00 51°23.031 2°43.845 -999 -999 -999 -999 -999
2010-08-20 09:18:10 51°23.022 2°43.836 -999 -999 -999 -999 -999
2010-08-20 09:18:20 51°23.015 2°43.828 -999 -999 -999 -999 -999
2010-08-20 09:18:30 51°23.006 2°43.819 -999 -999 -999 -999 -999
2010-08-20 09:18:40 51°22.998 2°43.811 -999 -999 -999 -999 -999
2010-08-20 09:18:50 51°22.989 2°43.803 -999 -999 -999 -999 -999
2010-08-20 09:19:00 51°22.981 2°43.797 -999 -999 -999 -999 -999
2010-08-20 09:19:10 51°22.972 2°43.788 -999 -999 -999 -999 -999
2010-08-20 09:19:20 51°22.964 2°43.781 -999 -999 -999 -999 -999
2010-08-20 09:19:30 51°22.954 2°43.773 -999 -999 -999 -999 -999
2010-08-20 09:19:40 51°22.947 2°43.766 -999 -999 -999 -999 -999
2010-08-20 09:19:50 51°22.937 2°43.757 -999 -999 -999 -999 -999
2010-08-20 09:20:00 51°22.929 2°43.75 -999 -999 -999 -999 -999
2010-08-20 09:20:10 51°22.921 2°43.742 -999 -999 -999 -999 -999
2010-08-20 09:20:20 51°22.912 2°43.733 -999 -999 -999 -999 -999
2010-08-20 09:20:30 51°22.903 2°43.723 -999 -999 -999 -999 -999
2010-08-20 09:20:40 51°22.896 2°43.715 -999 -999 -999 -999 -999
2010-08-20 09:20:50 51°22.887 2°43.706 -999 -999 -999 -999 -999
2010-08-20 09:21:00 51°22.879 2°43.697 -999 -999 -999 -999 -999
2010-08-20 09:21:10 51°22.871 2°43.688 -999 -999 -999 -999 -999
2010-08-20 09:21:20 51°22.863 2°43.677 -999 -999 -999 -999 -999
2010-08-20 09:21:30 51°22.855 2°43.667 -999 -999 -999 -999 -999
2010-08-20 09:21:40 51°22.848 2°43.657 -999 -999 -999 -999 -999
2010-08-20 09:21:50 51°22.84 2°43.645 -999 -999 -999 -999 -999
2010-08-20 09:22:00 51°22.834 2°43.635 -999 -999 -999 -999 -999
2010-08-20 09:22:10 51°22.827 2°43.623 -999 -999 -999 -999 -999
2010-08-20 09:22:20 51°22.821 2°43.61 -999 -999 -999 -999 -999
2010-08-20 09:22:30 51°22.815 2°43.596 -999 -999 -999 -999 -999
2010-08-20 09:22:40 51°22.81 2°43.586 -999 -999 -999 -999 -999
2010-08-20 09:22:50 51°22.804 2°43.574 -999 -999 -999 -999 -999
2010-08-20 09:23:00 51°22.799 2°43.565 -999 -999 -999 -999 -999
2010-08-20 09:23:10 51°22.795 2°43.555 -999 -999 -999 -999 -999
2010-08-20 09:23:20 51°22.791 2°43.546 -999 -999 -999 -999 -999
2010-08-20 09:23:30 51°22.788 2°43.538 -999 -999 -999 -999 -999
2010-08-20 09:23:40 51°22.784 2°43.531 -999 -999 -999 -999 -999
2010-08-20 09:23:50 51°22.78 2°43.524 -999 -999 -999 -999 -999
2010-08-20 09:24:00 51°22.777 2°43.518 -999 -999 -999 -999 -999
2010-08-20 09:24:10 51°22.774 2°43.512 -999 -999 -999 -999 -999
2010-08-20 09:24:20 51°22.771 2°43.506 -999 -999 -999 -999 -999
2010-08-20 09:24:30 51°22.768 2°43.502 -999 -999 -999 -999 -999
2010-08-20 09:24:40 51°22.767 2°43.498 -999 -999 -999 -999 -999
2010-08-20 09:24:50 51°22.765 2°43.494 -999 -999 -999 -999 -999
2010-08-20 09:25:00 51°22.764 2°43.492 -999 -999 -999 -999 -999
2010-08-20 09:25:10 51°22.763 2°43.489 -999 -999 -999 -999 -999
2010-08-20 09:25:20 51°22.762 2°43.487 -999 -999 -999 -999 -999
2010-08-20 09:25:30 51°22.761 2°43.484 -999 -999 -999 -999 -999
2010-08-20 09:25:40 51°22.761 2°43.483 -999 -999 -999 -999 -999
2010-08-20 09:25:50 51°22.76 2°43.482 -999 -999 -999 -999 -999
2010-08-20 09:26:00 51°22.76 2°43.481 -999 -999 -999 -999 -999
2010-08-20 09:26:10 51°22.76 2°43.48 -999 -999 -999 -999 -999
2010-08-20 09:26:20 51°22.761 2°43.48 -999 -999 -999 -999 -999
2010-08-20 09:26:30 51°22.761 2°43.479 -999 -999 -999 -999 -999
2010-08-20 09:26:40 51°22.762 2°43.48 -999 -999 -999 -999 -999
2010-08-20 09:26:50 51°22.764 2°43.48 -999 -999 -999 -999 -999
2010-08-20 09:27:00 51°22.766 2°43.483 -999 -999 -999 -999 -999
2010-08-20 09:27:10 51°22.769 2°43.487 -999 -999 -999 -999 -999
2010-08-20 09:27:20 51°22.77 2°43.49 -999 -999 -999 -999 -999
2010-08-20 09:27:30 51°22.773 2°43.493 -999 -999 -999 -999 -999
2010-08-20 09:27:40 51°22.776 2°43.496 -999 -999 -999 -999 -999
2010-08-20 09:27:50 51°22.779 2°43.5 -999 -999 -999 -999 -999
2010-08-20 09:28:00 51°22.781 2°43.503 -999 -999 -999 -999 -999
2010-08-20 09:28:10 51°22.784 2°43.507 -999 -999 -999 -999 -999
2010-08-20 09:28:20 51°22.787 2°43.51 -999 -999 -999 -999 -999
2010-08-20 09:28:30 51°22.789 2°43.514 -999 -999 -999 -999 -999
2010-08-20 09:28:40 51°22.792 2°43.517 -999 -999 -999 -999 -999
2010-08-20 09:28:50 51°22.796 2°43.521 -999 -999 -999 -999 -999
2010-08-20 09:29:00 51°22.798 2°43.525 -999 -999 -999 -999 -999
2010-08-20 09:29:10 51°22.801 2°43.529 -999 -999 -999 -999 -999
2010-08-20 09:29:20 51°22.804 2°43.532 -999 -999 -999 -999 -999
2010-08-20 09:29:30 51°22.807 2°43.536 -999 -999 -999 -999 -999
2010-08-20 09:29:40 51°22.81 2°43.539 -999 -999 -999 -999 -999
2010-08-20 09:29:50 51°22.813 2°43.541 -999 -999 -999 -999 -999
2010-08-20 09:30:00 51°22.815 2°43.542 -999 -999 -999 -999 -999
2010-08-20 09:30:10 51°22.816 2°43.543 -999 -999 -999 -999 -999
2010-08-20 09:30:20 51°22.817 2°43.543 -999 -999 -999 -999 -999
2010-08-20 09:30:30 51°22.818 2°43.543 -999 -999 -999 -999 -999
2010-08-20 09:30:40 51°22.818 2°43.543 -999 -999 -999 -999 -999
2010-08-20 09:30:50 51°22.817 2°43.541 -999 -999 -999 -999 -999
2010-08-20 09:31:00 51°22.816 2°43.54 -999 -999 -999 -999 -999
2010-08-20 09:31:10 51°22.816 2°43.538 -999 -999 -999 -999 -999
2010-08-20 09:31:20 51°22.815 2°43.537 -999 -999 -999 -999 -999
2010-08-20 09:31:30 51°22.813 2°43.536 -999 -999 -999 -999 -999
2010-08-20 09:31:40 51°22.81 2°43.534 -999 -999 -999 -999 -999
2010-08-20 09:31:50 51°22.807 2°43.531 -999 -999 -999 -999 -999
2010-08-20 09:32:00 51°22.802 2°43.527 -999 -999 -999 -999 -999
2010-08-20 09:32:10 51°22.797 2°43.524 -999 -999 -999 -999 -999
2010-08-20 09:32:20 51°22.791 2°43.52 -999 -999 -999 -999 -999
2010-08-20 09:32:30 51°22.784 2°43.514 -999 -999 -999 -999 -999
2010-08-20 09:32:40 51°22.779 2°43.507 -999 -999 -999 -999 -999
2010-08-20 09:32:50 51°22.773 2°43.499 -999 -999 -999 -999 -999
2010-08-20 09:33:00 51°22.767 2°43.491 -999 -999 -999 -999 -999
2010-08-20 09:33:10 51°22.76 2°43.482 -999 -999 -999 -999 -999
2010-08-20 09:33:20 51°22.755 2°43.472 -999 -999 -999 -999 -999
2010-08-20 09:33:30 51°22.749 2°43.462 -999 -999 -999 -999 -999
2010-08-20 09:33:40 51°22.743 2°43.45 -999 -999 -999 -999 -999
2010-08-20 09:33:50 51°22.738 2°43.435 -999 -999 -999 -999 -999
2010-08-20 09:34:00 51°22.736 2°43.422 -999 -999 -999 -999 -999
2010-08-20 09:34:10 51°22.734 2°43.407 -999 -999 -999 -999 -999
2010-08-20 09:34:20 51°22.735 2°43.393 -999 -999 -999 -999 -999
2010-08-20 09:34:30 51°22.739 2°43.379 -999 -999 -999 -999 -999
2010-08-20 09:34:40 51°22.745 2°43.367 -999 -999 -999 -999 -999
2010-08-20 09:34:50 51°22.754 2°43.355 -999 -999 -999 -999 -999
2010-08-20 09:35:00 51°22.763 2°43.349 -999 -999 -999 -999 -999
2010-08-20 09:35:10 51°22.776 2°43.344 -999 -999 -999 -999 -999
2010-08-20 09:35:20 51°22.788 2°43.344 -999 -999 -999 -999 -999
2010-08-20 09:35:30 51°22.802 2°43.345 -999 -999 -999 -999 -999
2010-08-20 09:35:40 51°22.817 2°43.346 -999 -999 -999 -999 -999
2010-08-20 09:35:50 51°22.835 2°43.346 -999 -999 -999 -999 -999
2010-08-20 09:36:00 51°22.849 2°43.346 -999 -999 -999 -999 -999
2010-08-20 09:36:10 51°22.867 2°43.347 -999 -999 -999 -999 -999
2010-08-20 09:36:20 51°22.882 2°43.35 -999 -999 -999 -999 -999
2010-08-20 09:36:30 51°22.898 2°43.359 -999 -999 -999 -999 -999
2010-08-20 09:36:40 51°22.912 2°43.373 -999 -999 -999 -999 -999
2010-08-20 09:36:50 51°22.926 2°43.39 -999 -999 -999 -999 -999
2010-08-20 09:37:00 51°22.936 2°43.405 -999 -999 -999 -999 -999
2010-08-20 09:37:10 51°22.947 2°43.42 -999 -999 -999 -999 -999
2010-08-20 09:37:20 51°22.956 2°43.436 -999 -999 -999 -999 -999
2010-08-20 09:37:30 51°22.964 2°43.45 -999 -999 -999 -999 -999
2010-08-20 09:37:40 51°22.971 2°43.464 -999 -999 -999 -999 -999
2010-08-20 09:37:50 51°22.977 2°43.478 -999 -999 -999 -999 -999
2010-08-20 09:38:00 51°22.981 2°43.488 -999 -999 -999 -999 -999
2010-08-20 09:38:10 51°22.985 2°43.498 -999 -999 -999 -999 -999
2010-08-20 09:38:20 51°22.988 2°43.506 -999 -999 -999 -999 -999
2010-08-20 09:38:30 51°22.992 2°43.516 -999 -999 -999 -999 -999
2010-08-20 09:38:40 51°22.995 2°43.525 -999 -999 -999 -999 -999
2010-08-20 09:38:50 51°22.998 2°43.535 -999 -999 -999 -999 -999
2010-08-20 09:39:00 51°23.001 2°43.543 -999 -999 -999 -999 -999
2010-08-20 09:39:10 51°23.004 2°43.553 -999 -999 -999 -999 -999
2010-08-20 09:39:20 51°23.007 2°43.561 -999 -999 -999 -999 -999
2010-08-20 09:39:30 51°23.011 2°43.57 -999 -999 -999 -999 -999
2010-08-20 09:39:40 51°23.013 2°43.578 -999 -999 -999 -999 -999
2010-08-20 09:39:50 51°23.016 2°43.587 -999 -999 -999 -999 -999
2010-08-20 09:40:00 51°23.019 2°43.595 -999 -999 -999 -999 -999
2010-08-20 09:40:10 51°23.022 2°43.607 -999 -999 -999 -999 -999
2010-08-20 09:40:20 51°23.024 2°43.627 -999 -999 -999 -999 -999
2010-08-20 09:40:30 51°23.03 2°43.659 -999 -999 -999 -999 -999
2010-08-20 09:40:40 51°23.042 2°43.701 -999 -999 -999 -999 -999
2010-08-20 09:40:50 51°23.061 2°43.737 -999 -999 -999 -999 -999
2010-08-20 09:41:00 51°23.084 2°43.767 -999 -999 -999 -999 -999
2010-08-20 09:41:10 51°23.117 2°43.802 -999 -999 -999 -999 -999
2010-08-20 09:41:20 51°23.146 2°43.831 -999 -999 -999 -999 -999
2010-08-20 09:41:30 51°23.182 2°43.869 -999 -999 -999 -999 -999
2010-08-20 09:41:40 51°23.211 2°43.902 -999 -999 -999 -999 -999
2010-08-20 09:41:50 51°23.246 2°43.946 -999 -999 -999 -999 -999
2010-08-20 09:42:00 51°23.276 2°43.99 -999 -999 -999 -999 -999
2010-08-20 09:42:10 51°23.305 2°44.034 -999 -999 -999 -999 -999
2010-08-20 09:42:20 51°23.333 2°44.073 -999 -999 -999 -999 -999
2010-08-20 09:42:30 51°23.368 2°44.115 -999 -999 -999 -999 -999
2010-08-20 09:42:40 51°23.398 2°44.148 -999 -999 -999 -999 -999
2010-08-20 09:42:50 51°23.436 2°44.183 -999 -999 -999 -999 -999
2010-08-20 09:43:00 51°23.466 2°44.205 -999 -999 -999 -999 -999
2010-08-20 09:43:10 51°23.507 2°44.23 -999 -999 -999 -999 -999
2010-08-20 09:43:20 51°23.544 2°44.247 -999 -999 -999 -999 -999
2010-08-20 09:43:30 51°23.587 2°44.26 -999 -999 -999 -999 -999
2010-08-20 09:43:40 51°23.621 2°44.266 -999 -999 -999 -999 -999
2010-08-20 09:43:50 51°23.655 2°44.272 -999 -999 -999 -999 -999
2010-08-20 09:44:00 51°23.685 2°44.283 -999 -999 -999 -999 -999
2010-08-20 09:44:10 51°23.709 2°44.302 -999 -999 -999 -999 -999
2010-08-20 09:44:20 51°23.729 2°44.326 -999 -999 -999 -999 -999
2010-08-20 09:44:30 51°23.747 2°44.355 -999 -999 -999 -999 -999
2010-08-20 09:44:40 51°23.758 2°44.376 -999 -999 -999 -999 -999
2010-08-20 09:44:50 51°23.775 2°44.408 -999 -999 -999 -999 -999
2010-08-20 09:45:00 51°23.788 2°44.43 -999 -999 -999 -999 -999
2010-08-20 09:45:10 51°23.804 2°44.456 -999 -999 -999 -999 -999
2010-08-20 09:45:20 51°23.819 2°44.478 -999 -999 -999 -999 -999
2010-08-20 09:45:30 51°23.835 2°44.498 -999 -999 -999 -999 -999
2010-08-20 09:45:40 51°23.849 2°44.514 -999 -999 -999 -999 -999
2010-08-20 09:45:50 51°23.867 2°44.532 -999 -999 -999 -999 -999
2010-08-20 09:46:00 51°23.881 2°44.544 -999 -999 -999 -999 -999
2010-08-20 09:46:10 51°23.895 2°44.555 -999 -999 -999 -999 -999
2010-08-20 09:46:20 51°23.909 2°44.564 -999 -999 -999 -999 -999
2010-08-20 09:46:30 51°23.922 2°44.57 -999 -999 -999 -999 -999
2010-08-20 09:46:40 51°23.935 2°44.574 -999 -999 -999 -999 -999
2010-08-20 09:46:50 51°23.947 2°44.576 -999 -999 -999 -999 -999
2010-08-20 09:47:00 51°23.96 2°44.572 -999 -999 -999 -999 -999
2010-08-20 09:47:10 51°23.972 2°44.562 -999 -999 -999 -999 -999
2010-08-20 09:47:20 51°23.981 2°44.555 -999 -999 -999 -999 -999
2010-08-20 09:47:30 51°23.988 2°44.546 -999 -999 -999 -999 -999
2010-08-20 09:47:40 51°23.994 2°44.538 -999 -999 -999 -999 -999
2010-08-20 09:47:50 51°23.999 2°44.531 -999 -999 -999 -999 -999
2010-08-20 09:48:00 51°24.004 2°44.524 -999 -999 -999 -999 -999
2010-08-20 09:48:10 51°24.007 2°44.518 -999 -999 -999 -999 -999
2010-08-20 09:48:20 51°24.01 2°44.513 -999 -999 -999 -999 -999
2010-08-20 09:48:30 51°24.013 2°44.508 -999 -999 -999 -999 -999
2010-08-20 09:48:40 51°24.016 2°44.505 -999 -999 -999 -999 -999
2010-08-20 09:48:50 51°24.018 2°44.501 -999 -999 -999 -999 -999
2010-08-20 09:49:00 51°24.021 2°44.499 -999 -999 -999 -999 -999
2010-08-20 09:49:10 51°24.024 2°44.496 -999 -999 -999 -999 -999
2010-08-20 09:49:20 51°24.026 2°44.494 -999 -999 -999 -999 -999
2010-08-20 09:49:30 51°24.028 2°44.493 -999 -999 -999 -999 -999
2010-08-20 09:49:40 51°24.03 2°44.492 -999 -999 -999 -999 -999
2010-08-20 09:49:50 51°24.032 2°44.491 -999 -999 -999 -999 -999
2010-08-20 09:50:00 51°24.035 2°44.49 -999 -999 -999 -999 -999
2010-08-20 09:50:10 51°24.036 2°44.489 -999 -999 -999 -999 -999
2010-08-20 09:50:20 51°24.038 2°44.487 -999 -999 -999 -999 -999
2010-08-20 09:50:30 51°24.04 2°44.484 -999 -999 -999 -999 -999
2010-08-20 09:50:40 51°24.042 2°44.482 -999 -999 -999 -999 -999
2010-08-20 09:50:50 51°24.043 2°44.477 -999 -999 -999 -999 -999
2010-08-20 09:51:00 51°24.044 2°44.473 -999 -999 -999 -999 -999
2010-08-20 09:51:10 51°24.044 2°44.469 -999 -999 -999 -999 -999
2010-08-20 09:51:20 51°24.044 2°44.466 -999 -999 -999 -999 -999
2010-08-20 09:51:30 51°24.043 2°44.463 -999 -999 -999 -999 -999
2010-08-20 09:51:40 51°24.042 2°44.46 -999 -999 -999 -999 -999
2010-08-20 09:51:50 51°24.04 2°44.457 -999 -999 -999 -999 -999
2010-08-20 09:52:00 51°24.038 2°44.455 -999 -999 -999 -999 -999
2010-08-20 09:52:10 51°24.036 2°44.451 -999 -999 -999 -999 -999
2010-08-20 09:52:20 51°24.034 2°44.448 -999 -999 -999 -999 -999
2010-08-20 09:52:30 51°24.031 2°44.443 -999 -999 -999 -999 -999
2010-08-20 09:52:40 51°24.028 2°44.44 -999 -999 -999 -999 -999
2010-08-20 09:52:50 51°24.025 2°44.436 -999 -999 -999 -999 -999
2010-08-20 09:53:00 51°24.022 2°44.432 -999 -999 -999 -999 -999
2010-08-20 09:53:10 51°24.018 2°44.429 -999 -999 -999 -999 -999
2010-08-20 09:53:20 51°24.015 2°44.425 -999 -999 -999 -999 -999
2010-08-20 09:53:30 51°24.011 2°44.422 -999 -999 -999 -999 -999
2010-08-20 09:53:40 51°24.007 2°44.418 -999 -999 -999 -999 -999
2010-08-20 09:53:50 51°24.003 2°44.413 -999 -999 -999 -999 -999
2010-08-20 09:54:00 51°23.999 2°44.409 -999 -999 -999 -999 -999
2010-08-20 09:54:10 51°23.996 2°44.403 -999 -999 -999 -999 -999
2010-08-20 09:54:20 51°23.992 2°44.399 -999 -999 -999 -999 -999
2010-08-20 09:54:30 51°23.988 2°44.394 -999 -999 -999 -999 -999
2010-08-20 09:54:40 51°23.985 2°44.39 -999 -999 -999 -999 -999
2010-08-20 09:54:50 51°23.98 2°44.384 -999 -999 -999 -999 -999
2010-08-20 09:55:00 51°23.977 2°44.38 -999 -999 -999 -999 -999
2010-08-20 09:55:10 51°23.973 2°44.374 -999 -999 -999 -999 -999
2010-08-20 09:55:20 51°23.969 2°44.37 -999 -999 -999 -999 -999
2010-08-20 09:55:30 51°23.964 2°44.366 -999 -999 -999 -999 -999
2010-08-20 09:55:40 51°23.96 2°44.361 -999 -999 -999 -999 -999
2010-08-20 09:55:50 51°23.957 2°44.357 -999 -999 -999 -999 -999
2010-08-20 09:56:00 51°23.953 2°44.354 -999 -999 -999 -999 -999
2010-08-20 09:56:10 51°23.95 2°44.352 -999 -999 -999 -999 -999
2010-08-20 09:56:20 51°23.947 2°44.349 -999 -999 -999 -999 -999
2010-08-20 09:56:30 51°23.944 2°44.347 -999 -999 -999 -999 -999
2010-08-20 09:56:40 51°23.941 2°44.345 -999 -999 -999 -999 -999
2010-08-20 09:56:50 51°23.939 2°44.343 -999 -999 -999 -999 -999
2010-08-20 09:57:00 51°23.937 2°44.341 -999 -999 -999 -999 -999
2010-08-20 09:57:10 51°23.935 2°44.339 -999 -999 -999 -999 -999
2010-08-20 09:57:20 51°23.934 2°44.337 -999 -999 -999 -999 -999
2010-08-20 09:57:30 51°23.932 2°44.335 -999 -999 -999 -999 -999
2010-08-20 09:57:40 51°23.931 2°44.333 -999 -999 -999 -999 -999
2010-08-20 09:57:50 51°23.93 2°44.331 -999 -999 -999 -999 -999
2010-08-20 09:58:00 51°23.929 2°44.33 -999 -999 -999 -999 -999
2010-08-20 09:58:10 51°23.928 2°44.328 -999 -999 -999 -999 -999
2010-08-20 09:58:20 51°23.927 2°44.327 -999 -999 -999 -999 -999
2010-08-20 09:58:30 51°23.926 2°44.326 -999 -999 -999 -999 -999
2010-08-20 09:58:40 51°23.925 2°44.326 -999 -999 -999 -999 -999
2010-08-20 09:58:50 51°23.925 2°44.325 -999 -999 -999 -999 -999
2010-08-20 09:59:00 51°23.924 2°44.325 -999 -999 -999 -999 -999
2010-08-20 09:59:10 51°23.924 2°44.324 -999 -999 -999 -999 -999
2010-08-20 09:59:20 51°23.923 2°44.323 -999 -999 -999 -999 -999
2010-08-20 09:59:30 51°23.923 2°44.321 -999 -999 -999 -999 -999
2010-08-20 09:59:40 51°23.923 2°44.319 -999 -999 -999 -999 -999
2010-08-20 09:59:50 51°23.923 2°44.317 -999 -999 -999 -999 -999
2010-08-20 10:00:00 51°23.924 2°44.316 -999 -999 -999 -999 -999
2010-08-20 10:00:10 51°23.924 2°44.315 -999 -999 -999 -999 -999
2010-08-20 10:00:20 51°23.925 2°44.314 -999 -999 -999 -999 -999
2010-08-20 10:00:30 51°23.926 2°44.314 -999 -999 -999 -999 -999
2010-08-20 10:00:40 51°23.927 2°44.314 -999 -999 -999 -999 -999
2010-08-20 10:00:50 51°23.928 2°44.315 -999 -999 -999 -999 -999
2010-08-20 10:01:00 51°23.929 2°44.316 -999 -999 -999 -999 -999
2010-08-20 10:01:10 51°23.93 2°44.317 -999 -999 -999 -999 -999
2010-08-20 10:01:20 51°23.932 2°44.318 -999 -999 -999 -999 -999
2010-08-20 10:01:30 51°23.934 2°44.32 -999 -999 -999 -999 -999
2010-08-20 10:01:40 51°23.935 2°44.321 -999 -999 -999 -999 -999
2010-08-20 10:01:50 51°23.937 2°44.323 -999 -999 -999 -999 -999
2010-08-20 10:02:00 51°23.939 2°44.325 -999 -999 -999 -999 -999
2010-08-20 10:02:10 51°23.941 2°44.327 -999 -999 -999 -999 -999
2010-08-20 10:02:20 51°23.944 2°44.329 -999 -999 -999 -999 -999
2010-08-20 10:02:30 51°23.947 2°44.331 -999 -999 -999 -999 -999
2010-08-20 10:02:40 51°23.949 2°44.334 -999 -999 -999 -999 -999
2010-08-20 10:02:50 51°23.952 2°44.337 -999 -999 -999 -999 -999
2010-08-20 10:03:00 51°23.954 2°44.339 -999 -999 -999 -999 -999
2010-08-20 10:03:10 51°23.957 2°44.343 -999 -999 -999 -999 -999
2010-08-20 10:03:20 51°23.959 2°44.345 -999 -999 -999 -999 -999
2010-08-20 10:03:30 51°23.963 2°44.349 -999 -999 -999 -999 -999
2010-08-20 10:03:40 51°23.965 2°44.352 -999 -999 -999 -999 -999
2010-08-20 10:03:50 51°23.968 2°44.356 -999 -999 -999 -999 -999
2010-08-20 10:04:00 51°23.971 2°44.359 -999 -999 -999 -999 -999
2010-08-20 10:04:10 51°23.974 2°44.363 -999 -999 -999 -999 -999
2010-08-20 10:04:20 51°23.977 2°44.366 -999 -999 -999 -999 -999
2010-08-20 10:04:30 51°23.98 2°44.369 -999 -999 -999 -999 -999
2010-08-20 10:04:40 51°23.982 2°44.371 -999 -999 -999 -999 -999
2010-08-20 10:04:50 51°23.985 2°44.373 -999 -999 -999 -999 -999
2010-08-20 10:05:00 51°23.986 2°44.374 -999 -999 -999 -999 -999
2010-08-20 10:05:10 51°23.988 2°44.376 -999 -999 -999 -999 -999
2010-08-20 10:05:20 51°23.989 2°44.377 -999 -999 -999 -999 -999
2010-08-20 10:05:30 51°23.991 2°44.378 -999 -999 -999 -999 -999
2010-08-20 10:05:40 51°23.991 2°44.379 -999 -999 -999 -999 -999
2010-08-20 10:05:50 51°23.992 2°44.381 -999 -999 -999 -999 -999
2010-08-20 10:06:00 51°23.992 2°44.381 -999 -999 -999 -999 -999
2010-08-20 10:06:10 51°23.991 2°44.382 -999 -999 -999 -999 -999
2010-08-20 10:06:20 51°23.991 2°44.382 -999 -999 -999 -999 -999
2010-08-20 10:06:30 51°23.99 2°44.381 -999 -999 -999 -999 -999
2010-08-20 10:06:40 51°23.988 2°44.379 -999 -999 -999 -999 -999
2010-08-20 10:06:50 51°23.986 2°44.377 -999 -999 -999 -999 -999
2010-08-20 10:07:00 51°23.984 2°44.375 -999 -999 -999 -999 -999
2010-08-20 10:07:10 51°23.981 2°44.372 -999 -999 -999 -999 -999
2010-08-20 10:07:20 51°23.978 2°44.37 -999 -999 -999 -999 -999
2010-08-20 10:07:30 51°23.975 2°44.367 -999 -999 -999 -999 -999
2010-08-20 10:07:40 51°23.971 2°44.363 -999 -999 -999 -999 -999
2010-08-20 10:07:50 51°23.967 2°44.36 -999 -999 -999 -999 -999
2010-08-20 10:08:00 51°23.963 2°44.356 -999 -999 -999 -999 -999
2010-08-20 10:08:10 51°23.959 2°44.352 -999 -999 -999 -999 -999
2010-08-20 10:08:20 51°23.955 2°44.348 -999 -999 -999 -999 -999
2010-08-20 10:08:30 51°23.951 2°44.344 -999 -999 -999 -999 -999
2010-08-20 10:08:40 51°23.948 2°44.341 -999 -999 -999 -999 -999
2010-08-20 10:08:50 51°23.944 2°44.339 -999 -999 -999 -999 -999
2010-08-20 10:09:00 51°23.942 2°44.337 -999 -999 -999 -999 -999
2010-08-20 10:09:10 51°23.939 2°44.336 -999 -999 -999 -999 -999
2010-08-20 10:09:20 51°23.937 2°44.334 -999 -999 -999 -999 -999
2010-08-20 10:09:30 51°23.934 2°44.333 -999 -999 -999 -999 -999
2010-08-20 10:09:40 51°23.933 2°44.332 -999 -999 -999 -999 -999
2010-08-20 10:09:50 51°23.931 2°44.331 -999 -999 -999 -999 -999
2010-08-20 10:10:00 51°23.93 2°44.33 -999 -999 -999 -999 -999
2010-08-20 10:10:10 51°23.929 2°44.329 -999 -999 -999 -999 -999
2010-08-20 10:10:20 51°23.929 2°44.328 -999 -999 -999 -999 -999
2010-08-20 10:10:30 51°23.927 2°44.326 -999 -999 -999 -999 -999
2010-08-20 10:10:40 51°23.926 2°44.325 -999 -999 -999 -999 -999
2010-08-20 10:10:50 51°23.924 2°44.322 -999 -999 -999 -999 -999
2010-08-20 10:11:00 51°23.923 2°44.319 -999 -999 -999 -999 -999
2010-08-20 10:11:10 51°23.922 2°44.316 -999 -999 -999 -999 -999
2010-08-20 10:11:20 51°23.92 2°44.314 -999 -999 -999 -999 -999
2010-08-20 10:11:30 51°23.919 2°44.31 -999 -999 -999 -999 -999
2010-08-20 10:11:40 51°23.918 2°44.309 -999 -999 -999 -999 -999
2010-08-20 10:11:50 51°23.918 2°44.306 -999 -999 -999 -999 -999
2010-08-20 10:12:00 51°23.917 2°44.305 -999 -999 -999 -999 -999
2010-08-20 10:12:10 51°23.917 2°44.304 -999 -999 -999 -999 -999
2010-08-20 10:12:20 51°23.917 2°44.303 -999 -999 -999 -999 -999
2010-08-20 10:12:30 51°23.917 2°44.303 -999 -999 -999 -999 -999
2010-08-20 10:12:40 51°23.917 2°44.303 -999 -999 -999 -999 -999
2010-08-20 10:12:50 51°23.918 2°44.304 -999 -999 -999 -999 -999
2010-08-20 10:13:00 51°23.918 2°44.304 -999 -999 -999 -999 -999
2010-08-20 10:13:10 51°23.919 2°44.306 -999 -999 -999 -999 -999
2010-08-20 10:13:20 51°23.92 2°44.307 -999 -999 -999 -999 -999
2010-08-20 10:13:30 51°23.921 2°44.309 -999 -999 -999 -999 -999
2010-08-20 10:13:40 51°23.921 2°44.311 -999 -999 -999 -999 -999
2010-08-20 10:13:50 51°23.922 2°44.313 -999 -999 -999 -999 -999
2010-08-20 10:14:00 51°23.924 2°44.315 -999 -999 -999 -999 -999
2010-08-20 10:14:10 51°23.925 2°44.318 -999 -999 -999 -999 -999
2010-08-20 10:14:20 51°23.927 2°44.32 -999 -999 -999 -999 -999
2010-08-20 10:14:30 51°23.928 2°44.324 -999 -999 -999 -999 -999
2010-08-20 10:14:40 51°23.93 2°44.327 -999 -999 -999 -999 -999
2010-08-20 10:14:50 51°23.932 2°44.33 -999 -999 -999 -999 -999
2010-08-20 10:15:00 51°23.933 2°44.333 -999 -999 -999 -999 -999
2010-08-20 10:15:10 51°23.936 2°44.337 -999 -999 -999 -999 -999
2010-08-20 10:15:20 51°23.937 2°44.34 -999 -999 -999 -999 -999
2010-08-20 10:15:30 51°23.94 2°44.344 -999 -999 -999 -999 -999
2010-08-20 10:15:40 51°23.942 2°44.347 -999 -999 -999 -999 -999
2010-08-20 10:15:50 51°23.944 2°44.351 -999 -999 -999 -999 -999
2010-08-20 10:16:00 51°23.946 2°44.355 -999 -999 -999 -999 -999
2010-08-20 10:16:10 51°23.949 2°44.359 -999 -999 -999 -999 -999
2010-08-20 10:16:20 51°23.951 2°44.363 -999 -999 -999 -999 -999
2010-08-20 10:16:30 51°23.954 2°44.367 -999 -999 -999 -999 -999
2010-08-20 10:16:40 51°23.956 2°44.371 -999 -999 -999 -999 -999
2010-08-20 10:16:50 51°23.958 2°44.375 -999 -999 -999 -999 -999
2010-08-20 10:17:00 51°23.96 2°44.379 -999 -999 -999 -999 -999
2010-08-20 10:17:10 51°23.963 2°44.384 -999 -999 -999 -999 -999
2010-08-20 10:17:20 51°23.966 2°44.387 -999 -999 -999 -999 -999
2010-08-20 10:17:30 51°23.968 2°44.391 -999 -999 -999 -999 -999
2010-08-20 10:17:40 51°23.97 2°44.394 -999 -999 -999 -999 -999
2010-08-20 10:17:50 51°23.971 2°44.395 -999 -999 -999 -999 -999
2010-08-20 10:18:00 51°23.972 2°44.396 -999 -999 -999 -999 -999
2010-08-20 10:18:10 51°23.972 2°44.396 -999 -999 -999 -999 -999
2010-08-20 10:18:20 51°23.972 2°44.396 -999 -999 -999 -999 -999
2010-08-20 10:18:30 51°23.971 2°44.393 -999 -999 -999 -999 -999
2010-08-20 10:18:40 51°23.971 2°44.39 -999 -999 -999 -999 -999
2010-08-20 10:18:50 51°23.969 2°44.386 -999 -999 -999 -999 -999
2010-08-20 10:19:00 51°23.967 2°44.383 -999 -999 -999 -999 -999
2010-08-20 10:19:10 51°23.964 2°44.378 -999 -999 -999 -999 -999
2010-08-20 10:19:20 51°23.961 2°44.373 -999 -999 -999 -999 -999
2010-08-20 10:19:30 51°23.957 2°44.367 -999 -999 -999 -999 -999
2010-08-20 10:19:40 51°23.954 2°44.361 -999 -999 -999 -999 -999
2010-08-20 10:19:50 51°23.95 2°44.355 -999 -999 -999 -999 -999
2010-08-20 10:20:00 51°23.947 2°44.35 -999 -999 -999 -999 -999
2010-08-20 10:20:10 51°23.943 2°44.345 -999 -999 -999 -999 -999
2010-08-20 10:20:20 51°23.94 2°44.342 -999 -999 -999 -999 -999
2010-08-20 10:20:30 51°23.937 2°44.339 -999 -999 -999 -999 -999
2010-08-20 10:20:40 51°23.935 2°44.336 -999 -999 -999 -999 -999
2010-08-20 10:20:50 51°23.933 2°44.333 -999 -999 -999 -999 -999
2010-08-20 10:21:00 51°23.932 2°44.331 -999 -999 -999 -999 -999
2010-08-20 10:21:10 51°23.931 2°44.327 -999 -999 -999 -999 -999
2010-08-20 10:21:20 51°23.931 2°44.325 -999 -999 -999 -999 -999
2010-08-20 10:21:30 51°23.93 2°44.323 -999 -999 -999 -999 -999
2010-08-20 10:21:40 51°23.931 2°44.321 -999 -999 -999 -999 -999
2010-08-20 10:21:50 51°23.93 2°44.319 -999 -999 -999 -999 -999
2010-08-20 10:22:00 51°23.931 2°44.318 -999 -999 -999 -999 -999
2010-08-20 10:22:10 51°23.93 2°44.318 -999 -999 -999 -999 -999
2010-08-20 10:22:20 51°23.931 2°44.318 -999 -999 -999 -999 -999
2010-08-20 10:22:30 51°23.931 2°44.319 -999 -999 -999 -999 -999
2010-08-20 10:22:40 51°23.931 2°44.319 -999 -999 -999 -999 -999
2010-08-20 10:22:50 51°23.932 2°44.321 -999 -999 -999 -999 -999
2010-08-20 10:23:00 51°23.932 2°44.322 -999 -999 -999 -999 -999
2010-08-20 10:23:10 51°23.933 2°44.324 -999 -999 -999 -999 -999
2010-08-20 10:23:20 51°23.934 2°44.325 -999 -999 -999 -999 -999
2010-08-20 10:23:30 51°23.935 2°44.327 -999 -999 -999 -999 -999
2010-08-20 10:23:40 51°23.936 2°44.33 -999 -999 -999 -999 -999
2010-08-20 10:23:50 51°23.937 2°44.332 -999 -999 -999 -999 -999
2010-08-20 10:24:00 51°23.939 2°44.334 -999 -999 -999 -999 -999
2010-08-20 10:24:10 51°23.94 2°44.336 -999 -999 -999 -999 -999
2010-08-20 10:24:20 51°23.942 2°44.338 -999 -999 -999 -999 -999
2010-08-20 10:24:30 51°23.944 2°44.34 -999 -999 -999 -999 -999
2010-08-20 10:24:40 51°23.946 2°44.343 -999 -999 -999 -999 -999
2010-08-20 10:24:50 51°23.948 2°44.346 -999 -999 -999 -999 -999
2010-08-20 10:25:00 51°23.95 2°44.348 -999 -999 -999 -999 -999
2010-08-20 10:25:10 51°23.952 2°44.351 -999 -999 -999 -999 -999
2010-08-20 10:25:20 51°23.955 2°44.353 -999 -999 -999 -999 -999
2010-08-20 10:25:30 51°23.957 2°44.356 -999 -999 -999 -999 -999
2010-08-20 10:25:40 51°23.959 2°44.358 -999 -999 -999 -999 -999
2010-08-20 10:25:50 51°23.961 2°44.362 -999 -999 -999 -999 -999
2010-08-20 10:26:00 51°23.964 2°44.365 -999 -999 -999 -999 -999
2010-08-20 10:26:10 51°23.967 2°44.369 -999 -999 -999 -999 -999
2010-08-20 10:26:20 51°23.969 2°44.371 -999 -999 -999 -999 -999
2010-08-20 10:26:30 51°23.972 2°44.374 -999 -999 -999 -999 -999
2010-08-20 10:26:40 51°23.975 2°44.378 -999 -999 -999 -999 -999
2010-08-20 10:26:50 51°23.977 2°44.38 -999 -999 -999 -999 -999
2010-08-20 10:27:00 51°23.979 2°44.382 -999 -999 -999 -999 -999
2010-08-20 10:27:10 51°23.982 2°44.383 -999 -999 -999 -999 -999
2010-08-20 10:27:20 51°23.983 2°44.382 -999 -999 -999 -999 -999
2010-08-20 10:27:30 51°23.985 2°44.381 -999 -999 -999 -999 -999
2010-08-20 10:27:40 51°23.986 2°44.379 -999 -999 -999 -999 -999
2010-08-20 10:27:50 51°23.987 2°44.376 -999 -999 -999 -999 -999
2010-08-20 10:28:00 51°23.987 2°44.372 -999 -999 -999 -999 -999
2010-08-20 10:28:10 51°23.987 2°44.367 -999 -999 -999 -999 -999
2010-08-20 10:28:20 51°23.985 2°44.361 -999 -999 -999 -999 -999
2010-08-20 10:28:30 51°23.982 2°44.354 -999 -999 -999 -999 -999
2010-08-20 10:28:40 51°23.979 2°44.348 -999 -999 -999 -999 -999
2010-08-20 10:28:50 51°23.974 2°44.341 -999 -999 -999 -999 -999
2010-08-20 10:29:00 51°23.97 2°44.336 -999 -999 -999 -999 -999
2010-08-20 10:29:10 51°23.965 2°44.332 -999 -999 -999 -999 -999
2010-08-20 10:29:20 51°23.961 2°44.328 -999 -999 -999 -999 -999
2010-08-20 10:29:30 51°23.956 2°44.325 -999 -999 -999 -999 -999
2010-08-20 10:29:40 51°23.953 2°44.324 -999 -999 -999 -999 -999
2010-08-20 10:29:50 51°23.949 2°44.322 -999 -999 -999 -999 -999
2010-08-20 10:30:00 51°23.945 2°44.322 -999 -999 -999 -999 -999
2010-08-20 10:30:10 51°23.941 2°44.323 -999 -999 -999 -999 -999
2010-08-20 10:30:20 51°23.939 2°44.324 -999 -999 -999 -999 -999
2010-08-20 10:30:30 51°23.936 2°44.324 -999 -999 -999 -999 -999
2010-08-20 10:30:40 51°23.934 2°44.324 -999 -999 -999 -999 -999
2010-08-20 10:30:50 51°23.933 2°44.324 -999 -999 -999 -999 -999
2010-08-20 10:31:00 51°23.931 2°44.324 -999 -999 -999 -999 -999
2010-08-20 10:31:10 51°23.931 2°44.324 -999 -999 -999 -999 -999
2010-08-20 10:31:20 51°23.931 2°44.324 -999 -999 -999 -999 -999
2010-08-20 10:31:30 51°23.932 2°44.323 -999 -999 -999 -999 -999
2010-08-20 10:31:40 51°23.932 2°44.322 -999 -999 -999 -999 -999
2010-08-20 10:31:50 51°23.933 2°44.321 -999 -999 -999 -999 -999
2010-08-20 10:32:00 51°23.934 2°44.32 -999 -999 -999 -999 -999
2010-08-20 10:32:10 51°23.934 2°44.318 -999 -999 -999 -999 -999
2010-08-20 10:32:20 51°23.935 2°44.316 -999 -999 -999 -999 -999
2010-08-20 10:32:30 51°23.934 2°44.314 -999 -999 -999 -999 -999
2010-08-20 10:32:40 51°23.933 2°44.312 -999 -999 -999 -999 -999
2010-08-20 10:32:50 51°23.932 2°44.311 -999 -999 -999 -999 -999
2010-08-20 10:33:00 51°23.93 2°44.312 -999 -999 -999 -999 -999
2010-08-20 10:33:10 51°23.927 2°44.312 -999 -999 -999 -999 -999
2010-08-20 10:33:20 51°23.924 2°44.313 -999 -999 -999 -999 -999
2010-08-20 10:33:30 51°23.921 2°44.313 -999 -999 -999 -999 -999
2010-08-20 10:33:40 51°23.918 2°44.313 -999 -999 -999 -999 -999
2010-08-20 10:33:50 51°23.916 2°44.312 -999 -999 -999 -999 -999
2010-08-20 10:34:00 51°23.913 2°44.311 -999 -999 -999 -999 -999
2010-08-20 10:34:10 51°23.912 2°44.311 -999 -999 -999 -999 -999
2010-08-20 10:34:20 51°23.911 2°44.31 -999 -999 -999 -999 -999
2010-08-20 10:34:30 51°23.91 2°44.31 -999 -999 -999 -999 -999
2010-08-20 10:34:40 51°23.909 2°44.31 -999 -999 -999 -999 -999
2010-08-20 10:34:50 51°23.909 2°44.31 -999 -999 -999 -999 -999
2010-08-20 10:35:00 51°23.91 2°44.31 -999 -999 -999 -999 -999
2010-08-20 10:35:10 51°23.91 2°44.31 -999 -999 -999 -999 -999
2010-08-20 10:35:20 51°23.91 2°44.311 -999 -999 -999 -999 -999
2010-08-20 10:35:30 51°23.911 2°44.312 -999 -999 -999 -999 -999
2010-08-20 10:35:40 51°23.912 2°44.312 -999 -999 -999 -999 -999
2010-08-20 10:35:50 51°23.913 2°44.313 -999 -999 -999 -999 -999
2010-08-20 10:36:00 51°23.915 2°44.315 -999 -999 -999 -999 -999
2010-08-20 10:36:10 51°23.916 2°44.316 -999 -999 -999 -999 -999
2010-08-20 10:36:20 51°23.918 2°44.318 -999 -999 -999 -999 -999
2010-08-20 10:36:30 51°23.919 2°44.321 -999 -999 -999 -999 -999
2010-08-20 10:36:40 51°23.921 2°44.322 -999 -999 -999 -999 -999
2010-08-20 10:36:50 51°23.922 2°44.325 -999 -999 -999 -999 -999
2010-08-20 10:37:00 51°23.924 2°44.328 -999 -999 -999 -999 -999
2010-08-20 10:37:10 51°23.926 2°44.331 -999 -999 -999 -999 -999
2010-08-20 10:37:20 51°23.928 2°44.333 -999 -999 -999 -999 -999
2010-08-20 10:37:30 51°23.93 2°44.337 -999 -999 -999 -999 -999
2010-08-20 10:37:40 51°23.932 2°44.34 -999 -999 -999 -999 -999
2010-08-20 10:37:50 51°23.934 2°44.343 -999 -999 -999 -999 -999
2010-08-20 10:38:00 51°23.936 2°44.346 -999 -999 -999 -999 -999
2010-08-20 10:38:10 51°23.939 2°44.35 -999 -999 -999 -999 -999
2010-08-20 10:38:20 51°23.941 2°44.353 -999 -999 -999 -999 -999
2010-08-20 10:38:30 51°23.943 2°44.357 -999 -999 -999 -999 -999
2010-08-20 10:38:40 51°23.946 2°44.36 -999 -999 -999 -999 -999
2010-08-20 10:38:50 51°23.948 2°44.363 -999 -999 -999 -999 -999
2010-08-20 10:39:00 51°23.951 2°44.367 -999 -999 -999 -999 -999
2010-08-20 10:39:10 51°23.954 2°44.371 -999 -999 -999 -999 -999
2010-08-20 10:39:20 51°23.956 2°44.375 -999 -999 -999 -999 -999
2010-08-20 10:39:30 51°23.959 2°44.379 -999 -999 -999 -999 -999
2010-08-20 10:39:40 51°23.961 2°44.382 -999 -999 -999 -999 -999
2010-08-20 10:39:50 51°23.965 2°44.387 -999 -999 -999 -999 -999
2010-08-20 10:40:00 51°23.967 2°44.39 -999 -999 -999 -999 -999
2010-08-20 10:40:10 51°23.969 2°44.393 -999 -999 -999 -999 -999
2010-08-20 10:40:20 51°23.971 2°44.395 -999 -999 -999 -999 -999
2010-08-20 10:40:30 51°23.972 2°44.397 -999 -999 -999 -999 -999
2010-08-20 10:40:40 51°23.973 2°44.397 -999 -999 -999 -999 -999
2010-08-20 10:40:50 51°23.973 2°44.397 -999 -999 -999 -999 -999
2010-08-20 10:41:00 51°23.973 2°44.396 -999 -999 -999 -999 -999
2010-08-20 10:41:10 51°23.973 2°44.395 -999 -999 -999 -999 -999
2010-08-20 10:41:20 51°23.972 2°44.394 -999 -999 -999 -999 -999
2010-08-20 10:41:30 51°23.97 2°44.392 -999 -999 -999 -999 -999
2010-08-20 10:41:40 51°23.969 2°44.389 -999 -999 -999 -999 -999
2010-08-20 10:41:50 51°23.967 2°44.386 -999 -999 -999 -999 -999
2010-08-20 10:42:00 51°23.965 2°44.383 -999 -999 -999 -999 -999
2010-08-20 10:42:10 51°23.963 2°44.379 -999 -999 -999 -999 -999
2010-08-20 10:42:20 51°23.961 2°44.376 -999 -999 -999 -999 -999
2010-08-20 10:42:30 51°23.959 2°44.371 -999 -999 -999 -999 -999
2010-08-20 10:42:40 51°23.956 2°44.367 -999 -999 -999 -999 -999
2010-08-20 10:42:50 51°23.954 2°44.362 -999 -999 -999 -999 -999
2010-08-20 10:43:00 51°23.951 2°44.358 -999 -999 -999 -999 -999
2010-08-20 10:43:10 51°23.948 2°44.353 -999 -999 -999 -999 -999
2010-08-20 10:43:20 51°23.945 2°44.348 -999 -999 -999 -999 -999
2010-08-20 10:43:30 51°23.942 2°44.343 -999 -999 -999 -999 -999
2010-08-20 10:43:40 51°23.94 2°44.339 -999 -999 -999 -999 -999
2010-08-20 10:43:50 51°23.938 2°44.335 -999 -999 -999 -999 -999
2010-08-20 10:44:00 51°23.935 2°44.331 -999 -999 -999 -999 -999
2010-08-20 10:44:10 51°23.933 2°44.328 -999 -999 -999 -999 -999
2010-08-20 10:44:20 51°23.932 2°44.325 -999 -999 -999 -999 -999
2010-08-20 10:44:30 51°23.93 2°44.322 -999 -999 -999 -999 -999
2010-08-20 10:44:40 51°23.928 2°44.32 -999 -999 -999 -999 -999
2010-08-20 10:44:50 51°23.926 2°44.318 -999 -999 -999 -999 -999
2010-08-20 10:45:00 51°23.925 2°44.317 -999 -999 -999 -999 -999
2010-08-20 10:45:10 51°23.923 2°44.315 -999 -999 -999 -999 -999
2010-08-20 10:45:20 51°23.922 2°44.313 -999 -999 -999 -999 -999
2010-08-20 10:45:30 51°23.922 2°44.312 -999 -999 -999 -999 -999
2010-08-20 10:45:40 51°23.922 2°44.31 -999 -999 -999 -999 -999
2010-08-20 10:45:50 51°23.921 2°44.309 -999 -999 -999 -999 -999
2010-08-20 10:46:00 51°23.921 2°44.308 -999 -999 -999 -999 -999
2010-08-20 10:46:10 51°23.921 2°44.308 -999 -999 -999 -999 -999
2010-08-20 10:46:20 51°23.92 2°44.308 -999 -999 -999 -999 -999
2010-08-20 10:46:30 51°23.92 2°44.309 -999 -999 -999 -999 -999
2010-08-20 10:46:40 51°23.92 2°44.31 -999 -999 -999 -999 -999